Regional Weather Roundup
Issued by NWS State College, PA

Home | Current Version | Previous Version | Text Only | Print | Product List | Glossary Off
Versions: 1 2 3 4 5 6 7 8 9 10 11 12 13 14 15 16 17 18 19 20 21 22 23 24 25 26 27 28 29 30 31 32 33 34 35 36 37 38 39 40 41 42 43 44 45 46 47 48 49 50

000
ASUS41 KCTP 061703
RWRCTP

REGIONAL WEATHER ROUNDUP
NATIONAL WEATHER SERVICE STATE COLLEGE PA
100 PM EDT MON JUL 06 2015

Note: "fair" indicates few or no clouds below 12,000 feet with no
significant weather and/or obstructions to visibility.

* = STATION THAT DOES NOT REPORT PRECIPITATION /E.G. RAIN...SNOW...ETC/
    THUNDER OR FOG.

PAZ002>004-007>009-013>016-020>023-029>032-061800-
WESTERN PENNSYLVANIA

CITY           SKY/WX    TMP DP  RH WIND       PRES   REMARKS
ERIE           MOSUNNY   78  65  63 NW8       30.05F
MEADVILLE      CLOUDY    79  65  62 MISG      30.09F
FRANKLIN*      CLOUDY    70  64  83 N3        30.12F THUNDER
NEW CASTLE     FAIR      74  73  96 E3        30.08F
BEAVER COUNTY  PTSUNNY   75  68  78 CALM      30.08S
BUTLER*        PTSUNNY   73  70  88 S6        30.10F
PITTSBURGH INT LGT RAIN  76  66  71 NW6       30.08S
PITTSBURGH     HVY RAIN  73  66  78 SW5       30.08S
INDIANA*       MOSUNNY   79  70  73 VRB7      30.13S
LATROBE        PTSUNNY   75  68  78 CALM      30.09F
WASHINGTON CO* NOT AVBL
$$

PAZ004>006-010>012-017>019-024>028-033>037-041-042-045-046-049>053-061800-
CENTRAL PENNSYLVANIA

CITY           SKY/WX    TMP DP  RH WIND       PRES   REMARKS
BRADFORD       PTSUNNY   75  64  68 SE7       30.15F
DUBOIS         CLOUDY    76  66  71 E13       30.12F
CLEARFIELD     CLOUDY    72  66  81 E5        30.14F
JOHNSTOWN      HVY RAIN  68  66  93 SE8       30.15S FOG
ALTOONA        CLOUDY    73  68  84 SE7       30.14S
STATE COLLEGE  RAIN      73  68  83 CALM      30.15S
WILLIAMSPORT   PTSUNNY   78  67  68 CALM      30.11F
SELINSGROVE    PTSUNNY   80  69  69 S5        30.12F
FT INDIANTOWN  PTSUNNY   78  69  73 SE6       30.13F
CAPITAL CITY   PTSUNNY   80  69  69 E10       30.11F
HARRISBURG     PTSUNNY   82  69  64 SE8       30.11F
YORK           PTSUNNY   82  70  66 SE9       30.11F
$$

PAZ038>040-043-044-047-048-054-055-060>062-067>071-061800-
EASTERN PENNSYLVANIA

CITY           SKY/WX    TMP DP  RH WIND       PRES   REMARKS
SCRANTON       PTSUNNY   82  63  52 SW8       30.15F
MOUNT POCONO   NOT AVBL
ALLENTOWN      CLOUDY    83  67  58 SW5       30.14F
QUAKERTOWN*    PTSUNNY   81  68  65 SE7       30.16F
READING        PTSUNNY   81  68  64 S8        30.12F
LANCASTER      CLOUDY    79  69  71 SE7       30.13F
COATESVILLE    PTSUNNY   79  72  78 SE6       30.16F
POTTSTOWN      CLOUDY    80  69  69 VRB3      30.15F
BLUE BELL      PTSUNNY   81  70  69 S6        30.14S
DOYLESTOWN     PTSUNNY   80  69  69 VRB5      30.14F
WILLOW GROVE   NOT AVBL
NORTH PHILA    PTSUNNY   83  69  62 SE12      30.16S
PHILADELPHIA   CLOUDY    82  71  69 SE8       30.13F
$$



USA.gov is the U.S. government's official web portal to all federal, state and local government web resources and services.